Theta_e
296 297 299 299 298 296 296 296 296 297 299 299 296 296 296 295 294 294 295 296 296 295 296 298 299 299 300 302 302 313 314 315 315 312 315 315 315 315 315 314 314 315 316 315 316 316 316
298 297 300 299 297 296 296 295 296 297 296 298 296 297 296 296 295 293 294 294 295 296 296 297 300 303 303 305 302 303 306 314 315 315 312 314 315 316 315 315 315 314 314 315 315 315 315
298 296 297 298 296 296 296 296 297 298 297 297 297 297 296 295 293 293 293 294 295 295 296 297 300 304 304 303 301 302 307 307 312 316 313 312 312 314 316 316 315 314 316 316 315 315 317
299 299 298 298 297 296 297 298 297 296 296 296 297 297 296 295 293 291 292 293 293 294 294 297 301 304 305 301 300 301 301 303 307 312 313 312 314 315 317 317 317 316 315 316 315 315 316
300 299 298 298 297 296 298 298 298 297 296 295 295 294 294 293 292 291 293 294 293 294 296 298 301 304 304 301 301 302 305 304 303 307 312 315 317 314 316 319 317 316 316 315 315 313 315
297 297 297 297 296 296 297 297 297 296 296 296 296 294 292 293 293 293 294 297 295 300 300 301 304 303 301 301 302 306 313 316 316 312 310 315 315 317 317 318 316 316 315 314 315 315 314
300 298 297 296 294 296 297 296 297 296 295 295 296 294 297 295 293 294 296 297 298 300 299 301 303 304 303 303 305 305 314 313 318 318 312 314 314 316 317 319 317 314 315 315 314 314 315
297 297 297 296 296 297 296 296 296 297 294 296 295 296 294 293 292 295 298 299 299 300 301 300 299 301 302 303 303 305 307 313 318 315 315 316 315 314 315 317 318 318 317 316 314 314 315
296 296 295 295 297 295 294 294 294 293 295 296 296 295 293 292 292 297 296 299 299 300 301 301 300 301 302 303 304 304 303 314 315 318 315 314 315 313 314 316 319 319 319 319 317 315 316
293 294 297 295 296 294 295 294 293 295 296 294 295 294 293 292 295 293 297 297 299 300 301 300 303 303 304 304 305 302 301 305 316 316 317 316 314 313 314 315 317 319 318 318 318 317 318
293 294 297 295 296 296 296 295 294 292 294 293 294 296 295 295 295 294 297 297 298 299 301 300 303 305 307 304 304 305 303 302 306 317 314 316 314 315 313 315 317 318 317 317 318 318 318
293 293 293 296 296 294 296 296 294 293 292 295 296 296 295 296 294 295 294 296 298 303 300 301 305 307 306 306 305 305 305 305 305 309 315 315 315 316 315 313 316 317 317 317 317 317 319
293 296 295 295 294 295 296 296 293 293 292 295 295 296 296 294 294 294 295 298 299 301 302 303 304 305 306 308 307 305 308 306 305 308 308 310 314 315 316 317 314 318 319 320 319 318 319
292 292 296 295 295 296 295 294 293 292 293 296 296 296 294 298 300 298 296 296 297 297 301 302 305 306 304 304 309 307 306 309 309 311 312 309 311 314 316 316 317 317 318 318 316 317 316
293 293 293 293 293 292 292 294 293 292 294 296 296 294 296 300 300 298 297 295 295 298 304 305 305 305 304 306 308 309 308 307 308 310 310 313 315 314 315 315 315 318 320 319 319 319 320
293 293 294 294 295 294 295 294 293 292 295 296 295 293 298 299 299 296 298 297 297 299 302 302 304 307 306 307 308 308 308 310 310 310 310 309 310 311 315 315 315 316 318 321 321 322 321
294 293 292 292 292 292 294 294 294 295 295 295 294 294 297 299 297 298 299 297 298 299 300 302 306 305 306 306 307 306 307 308 309 311 309 310 313 311 312 313 316 315 317 317 317 320 321
295 293 294 292 292 292 292 293 295 296 296 295 294 291 295 297 299 299 299 301 300 300 301 301 304 305 305 306 307 306 306 306 308 309 308 309 310 311 312 312 313 316 316 316 319 318 318
295 294 294 293 292 291 292 295 295 296 295 294 293 293 296 298 301 300 297 298 300 302 302 302 304 305 306 306 307 307 307 308 307 309 309 308 312 311 308 310 312 314 315 318 317 317 318
295 295 294 293 293 291 293 295 295 296 295 294 293 290 294 297 296 298 294 296 299 299 300 302 304 304 304 304 304 305 306 305 306 305 307 306 310 312 312 311 311 312 313 314 317 320 320
295 295 295 294 292 291 294 294 296 294 293 293 293 292 293 291 293 292 294 296 297 298 300 299 303 302 300 306 306 305 305 305 305 305 307 308 310 310 311 310 311 312 313 313 313 314 317
295 295 295 295 293 291 294 295 296 293 294 293 293 293 294 294 293 294 296 291 295 296 297 296 296 297 297 298 300 302 303 304 305 306 307 309 311 312 312 312 312 312 312 313 312 312 315
295 295 294 294 294 291 293 294 295 293 294 294 293 293 293 293 294 293 293 294 297 296 295 295 295 295 296 297 298 299 299 300 301 303 304 307 309 310 310 308 309 311 311 311 313 314 314
294 294 294 294 294 294 292 293 295 294 294 294 294 293 294 293 293 294 294 295 295 295 295 295 294 295 295 296 297 300 300 300 301 302 302 304 307 308 309 308 310 308 308 310 312 312 312
294 294 294 294 293 294 293 291 294 295 294 293 293 294 294 294 293 294 294 294 294 293 294 293 293 294 295 296 301 301 302 302 304 303 303 304 305 306 308 309 307 307 308 310 310 310 311
294 294 294 294 293 293 293 293 292 294 295 295 294 292 292 293 294 293 293 293 293 293 293 294 295 293 295 300 301 303 302 302 304 305 304 303 305 306 307 308 307 307 307 307 310 312 310
293 293 294 294 293 293 293 293 293 291 293 294 295 295 293 293 293 293 293 293 292 293 294 293 293 293 293 296 298 302 303 303 304 303 306 306 306 306 307 308 307 306 307 307 309 310 310
292 292 293 293 294 293 293 293 293 292 292 293 294 293 293 293 293 293 293 293 293 293 294 293 293 293 296 298 301 303 304 303 304 304 304 304 306 307 307 308 308 306 306 307 308 307 308
291 292 292 293 293 294 294 293 293 292 292 291 292 292 292 293 293 293 293 293 293 293 293 293 293 293 294 296 297 298 298 299 301 304 304 306 305 306 306 307 308 306 306 306 306 306 306
Wind_Speed
11 7 10 12 13 13 13 13 13 14 15 16 18 18 19 19 20 20 19 19 20 20 17 17 17 18 17 8 19 9 13 12 5 4 4 5 8 7 5 4 2 5 4 6 15 10 7
13 10 11 10 12 14 14 14 14 15 14 16 18 19 20 20 20 20 20 20 19 20 19 17 15 16 14 10 13 20 28 21 18 14 3 2 3 1 3 4 6 3 5 10 8 9 7
12 8 7 11 12 13 14 14 12 14 14 15 16 18 19 21 23 23 22 21 21 19 19 18 13 13 18 28 12 15 14 23 24 17 11 4 3 2 1 2 5 4 6 8 12 7 6
11 10 11 12 12 13 13 15 16 14 15 14 15 16 17 19 23 25 25 24 22 21 18 15 11 12 13 15 18 20 21 27 24 20 15 8 1 3 4 5 1 4 3 8 3 13 9
6 9 10 11 12 12 12 14 15 17 17 17 17 19 19 20 22 23 23 24 22 18 14 9 11 9 15 11 13 10 9 17 19 14 15 10 7 5 5 4 4 6 10 9 6 11 3
7 8 8 10 12 11 11 13 15 16 17 18 18 19 19 19 23 24 24 24 13 9 5 5 8 7 12 7 8 8 5 6 7 7 13 12 8 6 5 10 16 13 7 7 8 2 6
7 8 10 11 12 10 11 13 15 17 18 18 17 18 17 19 22 24 25 18 14 5 14 8 11 17 16 8 13 7 8 4 6 9 12 11 7 17 25 20 12 6 12 13 5 6 3
7 8 9 11 11 12 12 12 13 16 19 17 17 15 17 19 20 17 18 10 11 17 17 18 25 33 37 26 13 9 7 8 9 12 9 8 21 22 12 15 14 16 13 9 3 6 2
9 9 10 10 10 12 14 12 15 16 16 17 18 17 17 19 17 11 16 9 17 16 7 13 19 20 25 20 17 24 8 5 6 10 17 21 27 13 14 15 15 18 21 18 13 4 7
10 9 9 10 12 13 12 15 17 14 15 17 18 15 17 19 6 20 8 14 13 13 4 7 4 5 6 10 9 30 30 11 7 12 13 12 20 16 19 20 18 22 16 14 12 7 10
10 9 9 10 11 14 14 16 18 16 16 15 15 15 16 16 17 17 12 12 13 7 5 3 3 3 3 13 11 3 18 15 16 4 5 10 6 17 21 17 17 13 6 12 13 15 12
9 10 9 8 11 13 15 18 18 15 12 13 15 15 17 17 21 10 14 11 6 2 5 6 2 1 2 12 7 7 6 9 10 12 10 14 2 4 16 18 11 8 7 7 14 11 14
8 9 9 9 11 11 14 17 20 14 12 14 14 16 18 19 19 15 7 4 3 2 4 6 9 10 5 4 4 5 3 9 10 8 13 21 21 12 11 5 16 12 10 7 8 8 14
9 8 10 9 10 11 14 18 18 11 11 14 18 20 16 4 9 5 4 3 2 3 5 10 9 19 5 13 4 3 3 5 12 3 5 12 11 17 12 16 10 22 20 9 14 14 17
8 9 10 12 12 13 13 14 15 9 10 15 21 20 3 4 9 4 5 2 5 5 3 9 13 8 6 11 7 2 6 3 5 12 8 5 11 6 9 17 17 13 19 25 16 9 8
8 9 9 10 11 10 12 13 10 9 11 18 22 11 9 7 1 16 2 3 4 4 7 6 6 2 10 12 8 10 5 4 7 5 6 8 15 16 10 13 21 22 15 13 13 20 25
8 8 9 10 13 7 11 6 10 11 14 19 17 3 10 8 15 5 2 5 5 12 12 5 3 6 5 8 3 7 3 7 4 6 9 6 8 6 10 15 17 12 17 16 9 15 17
8 7 8 9 10 7 6 6 10 11 14 16 8 2 5 7 2 4 2 4 7 10 8 6 6 9 11 9 6 5 5 4 10 5 7 6 5 11 17 18 12 11 15 22 15 23 16
8 8 9 8 9 7 7 8 7 11 12 13 9 2 3 4 2 1 5 5 5 4 6 4 5 5 4 5 6 5 5 6 9 5 3 9 3 7 8 11 14 11 15 16 18 19 23
8 8 8 9 9 4 2 3 7 9 13 10 4 2 1 4 3 2 6 5 5 7 10 6 5 10 12 13 12 9 9 7 14 20 13 10 4 5 8 6 3 7 12 8 11 8 21
9 9 9 8 8 4 4 2 6 9 6 4 2 0 1 2 2 2 4 4 9 6 6 9 3 5 9 5 9 10 7 6 6 10 5 10 7 9 12 15 16 10 14 15 11 13 6
11 9 9 8 7 6 5 3 6 3 2 2 1 0 1 6 9 4 1 3 11 8 4 11 5 11 14 8 12 19 10 7 7 5 3 6 4 2 4 12 14 15 12 14 20 16 13
12 11 10 9 8 6 7 6 4 5 6 4 4 5 4 5 2 1 3 4 3 9 10 9 14 16 16 17 16 21 23 22 18 13 6 5 4 3 13 10 11 10 18 19 14 9 8
13 13 12 11 9 9 11 7 5 6 8 9 8 6 3 4 4 5 5 12 17 19 17 28 24 17 11 23 30 23 27 29 27 22 21 13 13 7 10 8 11 11 10 18 21 18 19
14 14 13 13 11 11 9 13 12 9 11 11 11 12 5 4 10 14 17 13 15 19 18 22 32 23 16 20 5 5 3 4 12 22 21 24 16 8 7 11 13 17 7 13 16 22 18
14 14 15 14 13 12 11 10 16 16 10 13 12 13 10 7 7 17 6 6 10 11 8 7 12 26 9 4 4 4 4 4 5 3 5 15 16 10 7 10 11 16 17 27 16 15 17
14 15 15 15 15 14 13 12 11 15 19 15 14 14 18 9 21 24 9 7 5 6 6 13 9 10 12 3 4 6 7 4 6 6 3 4 6 15 13 12 9 16 14 2 8 14 22
16 16 15 15 15 14 13 12 12 12 11 20 20 18 20 19 31 30 27 22 20 13 8 11 11 3 2 4 4 3 4 3 5 6 8 11 6 7 9 10 14 21 6 14 15 29 29
17 17 16 16 14 14 14 14 13 13 12 15 23 23 22 24 27 31 33 32 34 34 25 14 10 8 4 3 2 3 8 5 10 5 4 5 8 5 6 7 13 10 15 16 21 21 28
Wind_Direction
355 350 349 355 1 2 357 352 347 351 354 352 356 355 354 350 344 340 335 330 328 327 325 315 310 307 303 261 240 219 218 212 250 355 79 142 182 177 198 200 203 226 248 221 244 249 240
355 21 8 356 351 352 356 355 356 351 346 342 346 349 350 351 349 341 333 332 328 325 323 321 312 312 298 263 265 250 241 247 263 283 260 83 123 294 215 246 197 204 242 263 263 255 253
356 11 358 351 355 354 355 356 357 348 347 344 343 341 343 346 345 341 333 327 325 323 316 314 309 307 279 256 258 265 258 253 254 261 256 234 273 216 297 198 244 258 274 278 241 216 243
343 356 351 345 350 357 0 358 357 348 343 340 336 336 336 337 338 335 332 327 324 323 311 303 294 290 265 283 270 261 257 255 254 252 247 248 162 263 200 270 256 228 192 247 238 204 225
320 322 341 340 348 353 355 352 346 347 347 339 329 325 325 328 333 334 331 330 329 312 305 285 281 280 271 285 277 277 270 258 255 241 230 219 273 227 170 203 236 218 235 230 259 196 157
322 321 325 333 342 354 353 339 338 337 339 339 335 333 335 340 342 341 336 341 346 340 346 276 253 285 265 276 276 276 269 255 244 202 221 205 186 195 194 187 219 224 221 226 230 149 210
316 329 334 339 348 352 339 337 336 338 339 338 335 336 338 337 341 344 345 4 18 338 326 274 262 251 283 285 288 253 213 258 193 189 198 181 191 208 208 211 220 235 232 223 195 249 266
332 330 335 339 349 341 338 336 335 333 335 337 335 333 328 334 343 353 12 38 21 325 299 276 270 260 259 276 295 249 215 200 182 208 195 184 222 218 212 209 217 234 245 242 281 261 259
329 326 329 336 337 332 338 339 334 335 346 342 336 327 330 332 344 7 358 17 345 326 273 310 271 262 254 243 236 254 229 206 202 204 206 210 225 211 206 211 211 225 234 239 244 290 272
332 317 323 326 328 338 342 341 343 341 331 328 325 350 349 340 359 349 10 337 349 353 330 281 285 316 227 234 252 249 242 232 212 221 205 235 243 234 216 220 211 233 217 234 238 238 252
325 323 319 327 332 336 337 337 342 334 333 351 346 345 342 349 332 343 337 349 345 356 343 248 250 284 262 181 311 330 236 214 232 192 185 220 237 225 231 229 206 233 213 218 224 236 247
328 337 313 314 313 324 329 331 338 338 337 343 337 332 332 332 321 342 329 350 341 87 262 313 226 309 157 227 262 323 176 207 221 239 251 252 268 313 246 231 231 229 233 262 234 233 233
316 330 341 337 326 330 326 327 332 331 331 335 331 330 326 315 308 307 335 338 38 188 303 319 338 330 319 259 244 221 232 186 195 183 223 250 255 252 277 297 220 207 202 228 223 214 237
307 319 325 321 316 309 311 321 326 336 335 337 332 331 328 21 351 296 135 62 136 262 299 313 328 308 275 290 242 213 231 235 226 255 220 226 257 223 217 218 211 213 208 218 228 236 250
313 319 311 322 321 319 319 328 332 336 342 340 337 341 66 51 352 182 140 80 210 228 292 333 343 337 360 6 351 340 233 254 225 217 238 232 234 237 208 208 199 211 216 227 250 263 286
302 305 311 325 321 334 330 332 0 352 351 344 344 356 30 327 344 150 92 243 250 241 330 332 325 16 334 345 13 15 316 64 340 33 300 260 267 264 265 214 219 217 205 216 228 240 244
296 300 304 304 312 317 328 30 22 5 347 341 346 50 26 55 135 158 219 235 268 275 276 262 306 297 296 314 306 316 293 301 235 148 325 260 244 250 268 235 226 209 225 231 248 228 236
298 301 303 313 320 286 340 9 1 353 337 340 357 57 40 135 238 217 238 321 306 274 285 267 282 265 272 284 287 281 252 255 342 261 331 353 232 250 247 258 289 266 240 226 224 233 231
295 297 300 307 314 293 319 0 354 337 344 349 348 336 87 158 273 297 330 288 258 295 276 284 278 268 310 300 315 297 279 330 36 59 25 12 285 266 262 243 252 251 245 254 244 248 243
291 294 300 302 307 285 291 351 349 327 324 339 358 20 60 226 309 35 0 293 309 294 282 294 273 281 268 265 258 272 270 288 302 305 294 158 266 286 279 305 336 290 290 290 262 250 244
290 287 292 299 303 240 244 267 331 313 324 329 13 266 42 311 343 331 310 274 297 308 334 353 306 22 356 297 275 256 286 299 287 286 280 175 240 215 241 264 287 250 266 276 268 283 260
280 280 286 295 294 254 237 230 321 294 301 263 259 231 324 283 280 248 240 251 287 304 343 310 273 328 331 292 295 301 317 297 268 314 307 188 263 237 264 244 246 256 261 259 266 252 266
275 277 277 285 287 254 225 232 293 254 230 234 217 255 260 257 227 190 230 234 265 328 296 255 303 309 299 292 295 283 271 268 269 280 270 293 278 258 267 264 264 262 234 235 240 232 233
273 274 275 278 273 273 229 237 235 255 247 237 238 248 243 260 222 214 242 272 284 288 279 287 286 275 264 300 297 282 258 257 255 247 232 244 237 242 265 275 249 253 240 219 212 228 214
274 273 272 275 269 270 252 235 219 230 254 251 247 239 244 265 248 266 265 272 287 289 283 279 281 279 281 295 273 283 268 270 241 235 222 216 221 239 242 241 271 291 246 220 225 250 240
272 270 271 270 269 270 264 267 215 223 233 255 253 249 228 278 232 255 256 255 288 290 301 248 290 309 309 249 261 242 245 259 273 291 246 221 225 223 235 242 246 249 259 237 242 264 251
273 273 271 270 267 270 263 257 261 230 227 233 258 247 223 250 263 256 248 249 258 256 279 295 317 315 297 232 240 253 249 241 252 252 208 175 202 223 230 243 255 259 255 33 207 247 253
268 272 272 268 266 271 266 258 264 269 250 230 251 251 249 258 271 268 260 254 254 248 260 280 319 344 269 238 238 255 230 229 264 284 278 270 257 219 229 242 264 238 243 217 237 259 268
268 270 271 267 261 261 268 267 264 265 261 234 250 249 259 261 262 273 268 258 261 263 252 247 241 272 293 302 301 339 299 284 261 268 246 229 210 233 231 251 298 334 284 275 268 280 284